{"data":{"norad_id":57495,"epoch":"2026-05-25T04:02:50.472672Z","epoch_age_seconds":57875,"freshness":"FRESH","line1":"1 57495U 23113A   26145.16863973  .00001479  00000+0  63280-4 0  9994","line2":"2 57495  43.0041 303.9782 0001525 262.9792  97.0886 15.27580466155212","mean_motion":15.27580466,"eccentricity":0.0001525,"inclination_deg":43.0041,"raan_deg":303.9782,"arg_perigee_deg":262.9792,"mean_anomaly_deg":97.0886,"bstar":6.328e-5,"rev_number":15521,"period_min":94.266719956865,"perigee_km":482.00137000151,"apogee_km":484.09403133522,"semimajor_km":6861.1847006684,"source":"CELESTRAK","updated_at":"2026-05-25T13:38:18.326779Z"}}